Вернуться в каталог

TIANQI 29

АктивенСвязьLEO
NORAD 61195·PAYLOAD·🇨🇳 China

Запущен Sep 20, 2024 с Xichang Satellite Launch Center

Loading…

Ближайшие Пролёты (ближайшие 24 часа)

TLE

СвежийSource: Space-Track

Эпоха: Sep 14, 2026, 14:26 UTC

1 61195U 24170A   26257.60199194  .00000018  00000-0  10227-3 0  9991
2 61195  44.8562  98.8868 0006180 158.3315 201.7778 13.97725830101370

Отслеживайте TIANQI 29 в реальном времени с AllMySat

Download on the App Store